Regional Weather Roundup
Issued by NWS

Home | Current Version | Previous Version | Text Only | Print | Product List | Glossary On
Versions: 1 2 3 4 5 6 7 8 9 10 11 12 13 14 15 16 17 18 19 20 21 22 23 24 25 26 27 28 29 30 31 32 33 34 35 36 37 38 39 40 41 42 43 44 45 46 47 48 49 50
000
ASUS43 KTOP 271208
RWRKS

WEATHER ROUNDUP FOR KANSAS
NATIONAL WEATHER SERVICE GOODLAND KS
700 AM CDT SAT AUG 27 2016

NOTE:  "FAIR" INDICATES FEW OR NO CLOUDS BELOW 12,000 FEET WITH NO
SIGNIFICANT WEATHER AND/OR OBSTRUCTIONS TO VISIBILITY.

KSZ001>006-013>018-027>032-041>047-271300-
NORTHWEST KANSAS

CITY           SKY/WX    TMP DP  RH WIND       PRES   REMARKS
GOODLAND       FOG       54  54 100 SE3       30.07R VSB 1/4
6HR MIN TEMP:  50; 6HR MAX TEMP:  54;

HAYS           PTCLDY    59  52  77 NE3       30.03R
HILL CITY      CLEAR     55  54  96 N6        30.06R
6HR MIN TEMP:  55; 6HR MAX TEMP:  59;

RUSSELL        MOCLDY    59  59 100 CALM      30.01R
6HR MIN TEMP:  59; 6HR MAX TEMP:  63; 6HR PCP:  0.56;

$$

KSZ061>065-074>080-084>089-271300-
SOUTHWEST KANSAS

CITY           SKY/WX    TMP DP  RH WIND       PRES   REMARKS
DODGE CITY     CLEAR     60  58  92 SE7       30.06R
6HR MIN TEMP:  59; 6HR MAX TEMP:  70;

ELKHART          N/A     60  55  83 SW6         N/A
GARDEN CITY    CLEAR     59  57  93 SE9       30.05S
6HR MIN TEMP:  59; 6HR MAX TEMP:  68;

GREAT BEND     CLOUDY    64  55  72 S5        30.03R
LIBERAL        CLEAR     63  55  77 SW7       30.05R
PRATT          MOCLDY    62  59  90 E6        30.05F
6HR MIN TEMP:  61; 6HR MAX TEMP:  69;

$$

KSZ066>073-081>083-090>101-271300-
SOUTHEAST KANSAS

CITY           SKY/WX    TMP DP  RH WIND       PRES   REMARKS
CHANUTE        CLOUDY    71  69  93 SE6       30.05R FOG
6HR MIN TEMP:  69; 6HR MAX TEMP:  71;

COFFEYVILLE    PTCLDY    70  70 100 SE3       30.04R FOG
6HR MIN TEMP:  70; 6HR MAX TEMP:  73;

HUTCHINSON     PTCLDY    65  62  90 S3        30.05S
6HR MIN TEMP:  64; 6HR MAX TEMP:  73;

MEDICINE LODGE   N/A     65  63  93 NE6       30.02F
NEWTON         CLOUDY    66  63  90 E5        30.06R
PARSONS        CLOUDY    70  69  97 CALM      30.06R FOG
6HR MIN TEMP:  69; 6HR MAX TEMP:  74;

WICHITA INTL   CLOUDY    72  68  87 NE6       30.04R
6HR MIN TEMP:  69; 6HR MAX TEMP:  72; 6HR PCP: TRACE;

WICHITA JABRA  CLOUDY    69  68  96 NE3       30.05R
6HR MIN TEMP:  67; 6HR MAX TEMP:  73;

WICHITA MCCONL CLOUDY    70  67  92 NE5       30.05R
WINFIELD       CLEAR     69  67  93 CALM      30.06R
6HR MIN TEMP:  68; 6HR MAX TEMP:  71;

$$

KSZ007>012-019>026-033>040-048>060-102>105-271300-
NORTHEAST KANSAS

CITY           SKY/WX    TMP DP  RH WIND       PRES   REMARKS
CONCORDIA      MOCLDY    64  63  96 W12       30.02R
6HR MIN TEMP:  64; 6HR MAX TEMP:  67; 6HR PCP:  0.46;

EMPORIA        CLOUDY    68  66  93 E7        30.05S
6HR MIN TEMP:  68; 6HR MAX TEMP:  70;

LAWRENCE       MOCLDY    67  66  97 NW7       30.05R
6HR MIN TEMP:  67; 6HR MAX TEMP:  70; 6HR PCP:  0.01;

MANHATTAN      CLOUDY    65  64  97 CALM      30.01R
6HR MIN TEMP:  65; 6HR MAX TEMP:  71; 6HR PCP:  0.36;

MARYSVILLE     CLOUDY    63  63 100 CALM      30.01R
OLATHE IND     CLOUDY    71  70  96 S6        30.05R
6HR MIN TEMP:  69; 6HR MAX TEMP:  71;

OLATHE EXE     CLOUDY    70  70 100 SW6       30.05R
SALINA         CLEAR     66  64  93 S8        30.01F
6HR MIN TEMP:  65; 6HR MAX TEMP:  73; 6HR PCP:  0.35;

TOPEKA BILLARD MOCLDY    67  66  97 SW3       30.06R
6HR MIN TEMP:  66; 6HR MAX TEMP:  70; 6HR PCP:  0.55;

TOPEKA FORBES  MOCLDY    69  65  86 CALM      30.05S
6HR MIN TEMP:  68; 6HR MAX TEMP:  72; 6HR PCP:  0.09;

$$



USA.gov is the U.S. government's official web portal to all federal, state and local government web resources and services.